| time (UTC) | temp F | wind direction | speed MPH | gust MPH | rain 1hr in | rain 24hr in | rain mn in | humidity % | barometer mb |
| 20260903200328 | 81 | 247 | 0.0 | 2.0 | 0.00 | 0.00 | 0.00 | 79 | 1014.8 |
| 20260903195837 | 79 | 237 | 1.0 | 2.0 | 0.00 | 0.00 | 0.00 | 79 | 1014.9 |
| 20260903195318 | 78 | 284 | 0.0 | 2.0 | 0.00 | 0.00 | 0.00 | 80 | 1015.1 |
| 20260903194819 | 77 | 267 | 0.0 | 2.0 | 0.00 | 0.00 | 0.00 | 80 | 1015.1 |
| 20260903194329 | 77 | 360 | 0.0 | 1.0 | 0.00 | 0.00 | 0.00 | 80 | 1015.1 |
| 20260903193830 | 77 | 268 | 0.0 | 1.0 | 0.00 | 0.00 | 0.00 | 79 | 1015.1 |
| 20260903193311 | 77 | 253 | 0.0 | 1.0 | 0.00 | 0.00 | 0.00 | 79 | 1015.3 |
| 20260903192820 | 77 | 253 | 0.0 | 1.0 | 0.00 | 0.00 | 0.00 | 80 | 1015.7 |
| 20260903192323 | 77 | 251 | 0.0 | 2.0 | 0.00 | 0.00 | 0.00 | 80 | 1016.2 |
| 20260903191852 | 76 | 253 | 0.0 | 4.0 | 0.00 | 0.00 | 0.00 | 80 | 1016.5 |
| 20260903191314 | 77 | 216 | 1.0 | 4.0 | 0.00 | 0.00 | 0.00 | 81 | 1016.4 |
| 20260903190815 | 76 | 215 | 3.0 | 4.0 | 0.00 | 0.00 | 0.00 | 82 | 1016.2 |
| 20260903190345 | 75 | 86 | 1.0 | 3.0 | 0.00 | 0.00 | 0.00 | 82 | 1015.8 |
| 20260903185826 | 75 | 103 | 1.0 | 4.0 | 0.00 | 0.00 | 0.00 | 82 | 1016.2 |
| 20260903185335 | 75 | 229 | 2.0 | 4.0 | 0.00 | 0.00 | 0.00 | 81 | 1016.4 |
| 20260903184816 | 76 | 86 | 1.0 | 3.0 | 0.00 | 0.00 | 0.00 | 80 | 1016.3 |
| 20260903184319 | 76 | 211 | 0.0 | 3.0 | 0.00 | 0.00 | 0.00 | 80 | 1017.1 |
| 20260903183827 | 76 | 221 | 1.0 | 3.0 | 0.00 | 0.00 | 0.00 | 80 | 1017.2 |
| 20260903183329 | 76 | 219 | 1.0 | 3.0 | 0.00 | 0.00 | 0.00 | 79 | 1017.3 |
| 20260903182811 | 76 | 219 | 1.0 | 3.0 | 0.00 | 0.00 | 0.00 | 79 | 1017.3 |
| 20260903182312 | 77 | 213 | 1.0 | 2.0 | 0.00 | 0.00 | 0.00 | 80 | 1017.1 |
| 20260903181821 | 77 | 215 | 0.0 | 3.0 | 0.00 | 0.00 | 0.00 | 79 | 1016.9 |
| 20260903181324 | 77 | 211 | 1.0 | 3.0 | 0.00 | 0.00 | 0.00 | 79 | 1017.1 |
| 20260903180832 | 77 | 266 | 0.0 | 1.0 | 0.00 | 0.00 | 0.00 | 79 | 1016.9 |
| 20260903180314 | 77 | 313 | 0.0 | 1.0 | 0.00 | 0.00 | 0.00 | 78 | 1017.0 |
| 20260903175816 | 78 | 313 | 0.0 | 1.0 | 0.00 | 0.00 | 0.00 | 78 | 1017.3 |
| 20260903175318 | 78 | 303 | 0.0 | 1.0 | 0.00 | 0.00 | 0.00 | 79 | 1017.5 |
| 20260903174827 | 77 | 302 | 0.0 | 2.0 | 0.00 | 0.00 | 0.00 | 79 | 1017.6 |
| 20260903174329 | 77 | 302 | 1.0 | 2.0 | 0.00 | 0.00 | 0.00 | 80 | 1017.5 |
| 20260903173836 | 77 | 267 | 1.0 | 4.0 | 0.00 | 0.00 | 0.00 | 80 | 1017.5 |
| 20260903173318 | 77 | 287 | 1.0 | 4.0 | 0.00 | 0.00 | 0.00 | 79 | 1017.4 |
| 20260903172820 | 77 | 293 | 1.0 | 2.0 | 0.00 | 0.00 | 0.00 | 79 | 1017.5 |
| 20260903172322 | 77 | 292 | 1.0 | 3.0 | 0.00 | 0.00 | 0.00 | 79 | 1017.3 |
| 20260903171831 | 77 | 275 | 1.0 | 3.0 | 0.00 | 0.00 | 0.00 | 79 | 1017.4 |
| 20260903171314 | 78 | 261 | 2.0 | 3.0 | 0.00 | 0.00 | 0.00 | 79 | 1017.3 |
| 20260903170814 | 78 | 260 | 2.0 | 3.0 | 0.00 | 0.00 | 0.00 | 79 | 1017.2 |
| 20260903170323 | 78 | 265 | 2.0 | 3.0 | 0.00 | 0.00 | 0.00 | 79 | 1017.0 |
| 20260903165845 | 78 | 265 | 2.0 | 3.0 | 0.00 | 0.00 | 0.00 | 79 | 1016.8 |
| 20260903165333 | 78 | 269 | 2.0 | 3.0 | 0.00 | 0.00 | 0.00 | 80 | 1016.4 |
| 20260903164815 | 78 | 277 | 1.0 | 3.0 | 0.00 | 0.00 | 0.00 | 80 | 1016.0 |
| 20260903164345 | 78 | 360 | 1.0 | 3.0 | 0.00 | 0.00 | 0.00 | 81 | 1015.6 |
| 20260903163825 | 78 | 360 | 2.0 | 3.0 | 0.00 | 0.00 | 0.00 | 81 | 1015.4 |
| 20260903163327 | 78 | 284 | 1.0 | 2.0 | 0.00 | 0.00 | 0.00 | 82 | 1015.1 |
| 20260903162836 | 78 | 306 | 1.0 | 3.0 | 0.00 | 0.00 | 0.00 | 83 | 1014.7 |
| 20260903162317 | 77 | 227 | 1.0 | 3.0 | 0.00 | 0.00 | 0.00 | 83 | 1014.7 |
| 20260903161819 | 77 | 275 | 1.0 | 3.0 | 0.00 | 0.00 | 0.00 | 84 | 1014.4 |
| 20260903161328 | 77 | 220 | 1.0 | 4.0 | 0.00 | 0.00 | 0.00 | 84 | 1014.2 |
| 20260903160849 | 76 | 202 | 1.0 | 4.0 | 0.00 | 0.00 | 0.00 | 84 | 1014.4 |
| 20260903160337 | 76 | 217 | 2.0 | 5.0 | 0.00 | 0.00 | 0.00 | 84 | 1014.5 |
| 20260903155818 | 76 | 213 | 3.0 | 8.0 | 0.00 | 0.00 | 0.00 | 84 | 1014.7 |
| 20260903155321 | 76 | 202 | 4.0 | 8.0 | 0.00 | 0.00 | 0.00 | 84 | 1014.7 |
| 20260903154812 | 76 | 227 | 4.0 | 5.0 | 0.00 | 0.00 | 0.00 | 84 | 1014.7 |
| 20260903154313 | 76 | 205 | 2.0 | 4.0 | 0.00 | 0.00 | 0.00 | 85 | 1014.2 |
| 20260903153814 | 76 | 224 | 2.0 | 4.0 | 0.00 | 0.00 | 0.00 | 85 | 1014.2 |
| 20260903153323 | 76 | 196 | 1.0 | 4.0 | 0.00 | 0.00 | 0.00 | 85 | 1014.2 |
| 20260903152825 | 76 | 186 | 2.0 | 5.0 | 0.00 | 0.00 | 0.00 | 85 | 1014.6 |
| 20260903152327 | 75 | 185 | 1.0 | 6.0 | 0.00 | 0.00 | 0.00 | 85 | 1014.7 |
| 20260903151818 | 75 | 222 | 2.0 | 6.0 | 0.00 | 0.00 | 0.00 | 85 | 1015.0 |
| 20260903151320 | 76 | 360 | 2.0 | 5.0 | 0.00 | 0.00 | 0.00 | 85 | 1014.8 |
| 20260903150821 | 76 | 208 | 2.0 | 138.0 | 0.00 | 0.00 | 0.00 | 85 | 1014.9 |
| 20260903150350 | 75 | 269 | 1.0 | 138.0 | 0.00 | 0.00 | 0.00 | 85 | 1015.0 |
| 20260903145812 | 76 | 16 | 37.0 | 137.0 | 0.00 | 0.00 | 0.00 | 85 | 1015.3 |
| 20260903145340 | 75 | 245 | 18.0 | 133.0 | 0.00 | 0.00 | 0.00 | 86 | 1015.2 |
| 20260903144816 | 75 | 225 | 134.0 | 136.0 | 0.00 | 0.00 | 0.00 | 86 | 1015.1 |
| 20260903144326 | 75 | 227 | 2.0 | 134.0 | 0.00 | 0.00 | 0.00 | 86 | 1015.2 |
| 20260903143827 | 75 | 214 | 137.0 | 139.0 | 0.00 | 0.00 | 0.00 | 86 | 1015.2 |
| 20260903143329 | 75 | 209 | 129.0 | 136.0 | 0.00 | 0.00 | 0.00 | 86 | 1015.3 |
| 20260903142811 | 75 | 76 | 137.0 | 137.0 | 0.00 | 0.00 | 0.00 | 86 | 1015.0 |
| 20260903142319 | 75 | 75 | 137.0 | 137.0 | 0.00 | 0.00 | 0.00 | 86 | 1014.7 |
| 20260903141827 | 75 | 75 | 137.0 | 137.0 | 0.00 | 0.00 | 0.00 | 86 | 1014.7 |
| 20260903141329 | 75 | 76 | 137.0 | 137.0 | 0.00 | 0.00 | 0.00 | 86 | 1015.1 |
| 20260903140811 | 75 | 75 | 137.0 | 137.0 | 0.00 | 0.00 | 0.00 | 86 | 1015.0 |
| 20260903140313 | 74 | 74 | 137.0 | 137.0 | 0.00 | 0.00 | 0.00 | 86 | 1014.9 |
| 20260903135821 | 74 | 76 | 137.0 | 137.0 | 0.00 | 0.00 | 0.00 | 86 | 1014.8 |
| 20260903135323 | 74 | 74 | 136.0 | 137.0 | 0.00 | 0.00 | 0.00 | 86 | 1014.6 |
| 20260903134831 | 74 | 72 | 136.0 | 137.0 | 0.00 | 0.00 | 0.00 | 86 | 1014.6 |
| 20260903134313 | 74 | 74 | 136.0 | 137.0 | 0.00 | 0.00 | 0.00 | 86 | 1014.9 |
| 20260903133814 | 74 | 76 | 137.0 | 137.0 | 0.00 | 0.00 | 0.00 | 86 | 1014.8 |
| 20260903133314 | 74 | 76 | 137.0 | 137.0 | 0.00 | 0.00 | 0.00 | 86 | 1014.9 |
| 20260903132823 | 74 | 74 | 136.0 | 137.0 | 0.00 | 0.00 | 0.00 | 86 | 1014.7 |
| 20260903132346 | 74 | 73 | 136.0 | 137.0 | 0.00 | 0.00 | 0.00 | 86 | 1014.7 |
| 20260903131834 | 74 | 72 | 136.0 | 137.0 | 0.00 | 0.00 | 0.00 | 86 | 1014.6 |
| 20260903131317 | 73 | 76 | 136.0 | 137.0 | 0.00 | 0.00 | 0.00 | 86 | 1014.6 |
| 20260903130817 | 73 | 73 | 136.0 | 137.0 | 0.00 | 0.00 | 0.00 | 86 | 1014.7 |
| 20260903130326 | 73 | 71 | 136.0 | 137.0 | 0.00 | 0.00 | 0.00 | 86 | 1014.8 |
| 20260903125828 | 73 | 76 | 136.0 | 137.0 | 0.00 | 0.00 | 0.00 | 86 | 1014.9 |
| 20260903125327 | 72 | 72 | 136.0 | 137.0 | 0.00 | 0.00 | 0.00 | 86 | 1015.0 |
| 20260903124837 | 72 | 71 | 136.0 | 137.0 | 0.00 | 0.00 | 0.00 | 86 | 1014.9 |
| 20260903124319 | 72 | 74 | 136.0 | 137.0 | 0.00 | 0.00 | 0.00 | 86 | 1015.0 |
| 20260903123820 | 72 | 78 | 136.0 | 137.0 | 0.00 | 0.00 | 0.00 | 86 | 1014.9 |
| 20260903123329 | 72 | 71 | 136.0 | 137.0 | 0.00 | 0.00 | 0.00 | 86 | 1014.9 |
| 20260903122829 | 72 | 80 | 137.0 | 137.0 | 0.00 | 0.00 | 0.00 | 86 | 1015.0 |
| 20260903122336 | 72 | 79 | 137.0 | 137.0 | 0.00 | 0.00 | 0.00 | 85 | 1015.0 |
| 20260903121818 | 72 | 79 | 137.0 | 137.0 | 0.00 | 0.00 | 0.00 | 85 | 1015.0 |
| 20260903121321 | 72 | 75 | 136.0 | 137.0 | 0.00 | 0.00 | 0.00 | 85 | 1015.0 |
| 20260903120829 | 72 | 74 | 136.0 | 137.0 | 0.00 | 0.00 | 0.00 | 86 | 1015.2 |
| 20260903120311 | 72 | 72 | 136.0 | 137.0 | 0.00 | 0.00 | 0.00 | 86 | 1015.3 |
| 20260903115812 | 72 | 73 | 136.0 | 137.0 | 0.00 | 0.00 | 0.00 | 86 | 1015.3 |
| 20260903115314 | 72 | 73 | 91.0 | 137.0 | 0.00 | 0.00 | 0.00 | 86 | 1015.3 |
| 20260903114823 | 72 | 78 | 2.0 | 5.0 | 0.00 | 0.00 | 0.00 | 86 | 1015.3 |
| 20260903114326 | 72 | 73 | 2.0 | 137.0 | 0.00 | 0.00 | 0.00 | 86 | 1015.3 |
| 20260903113835 | 72 | 72 | 2.0 | 137.0 | 0.00 | 0.00 | 0.00 | 86 | 1015.3 |
| 20260903113336 | 72 | 77 | 137.0 | 138.0 | 0.00 | 0.00 | 0.00 | 85 | 1015.2 |
| 20260903112817 | 72 | 78 | 137.0 | 137.0 | 0.00 | 0.00 | 0.00 | 85 | 1015.0 |
| 20260903112327 | 72 | 75 | 136.0 | 137.0 | 0.00 | 0.00 | 0.00 | 86 | 1015.1 |
| 20260903111827 | 72 | 74 | 137.0 | 137.0 | 0.00 | 0.00 | 0.00 | 86 | 1015.0 |
| 20260903111336 | 72 | 71 | 136.0 | 137.0 | 0.00 | 0.00 | 0.00 | 85 | 1015.1 |
| 20260903110838 | 72 | 76 | 137.0 | 137.0 | 0.00 | 0.00 | 0.00 | 85 | 1014.9 |
| 20260903110318 | 72 | 76 | 137.0 | 137.0 | 0.00 | 0.00 | 0.00 | 86 | 1014.8 |
| 20260903105847 | 72 | 77 | 137.0 | 137.0 | 0.00 | 0.00 | 0.00 | 86 | 1014.8 |
| 20260903105328 | 72 | 75 | 136.0 | 137.0 | 0.00 | 0.00 | 0.00 | 86 | 1014.8 |
| 20260903104836 | 72 | 75 | 137.0 | 137.0 | 0.00 | 0.00 | 0.00 | 86 | 1014.7 |
| 20260903104319 | 72 | 76 | 137.0 | 137.0 | 0.00 | 0.00 | 0.00 | 86 | 1014.9 |
| 20260903103821 | 72 | 78 | 137.0 | 137.0 | 0.00 | 0.00 | 0.00 | 86 | 1014.9 |
| 20260903103330 | 72 | 77 | 137.0 | 137.0 | 0.00 | 0.00 | 0.00 | 86 | 1014.9 |
| 20260903102831 | 72 | 76 | 137.0 | 137.0 | 0.00 | 0.00 | 0.00 | 86 | 1015.0 |
| 20260903102400 | 72 | 79 | 137.0 | 137.0 | 0.00 | 0.00 | 0.00 | 86 | 1015.0 |
| 20260903101820 | 72 | 79 | 137.0 | 137.0 | 0.00 | 0.00 | 0.00 | 86 | 1014.8 |
| 20260903101323 | 72 | 78 | 137.0 | 137.0 | 0.00 | 0.00 | 0.00 | 86 | 1014.8 |
| 20260903100831 | 72 | 78 | 137.0 | 137.0 | 0.00 | 0.00 | 0.00 | 86 | 1014.8 |
| 20260903100313 | 72 | 80 | 137.0 | 137.0 | 0.00 | 0.00 | 0.00 | 86 | 1014.8 |
| 20260903095815 | 72 | 76 | 137.0 | 137.0 | 0.00 | 0.00 | 0.00 | 86 | 1014.8 |
| 20260903095317 | 72 | 75 | 137.0 | 137.0 | 0.00 | 0.00 | 0.00 | 86 | 1014.9 |
| 20260903094826 | 72 | 76 | 137.0 | 137.0 | 0.00 | 0.00 | 0.00 | 86 | 1014.9 |
| 20260903094328 | 72 | 76 | 137.0 | 137.0 | 0.00 | 0.00 | 0.00 | 86 | 1014.9 |
| 20260903093836 | 72 | 76 | 136.0 | 137.0 | 0.00 | 0.00 | 0.00 | 86 | 1015.0 |
| 20260903093315 | 72 | 73 | 136.0 | 136.0 | 0.00 | 0.00 | 0.00 | 86 | 1014.9 |
| 20260903092837 | 72 | 69 | 136.0 | 137.0 | 0.00 | 0.00 | 0.00 | 86 | 1015.0 |
| 20260903092324 | 72 | 71 | 136.0 | 137.0 | 0.00 | 0.00 | 0.00 | 86 | 1014.8 |
| 20260903091827 | 72 | 69 | 136.0 | 137.0 | 0.00 | 0.00 | 0.00 | 86 | 1014.8 |
| 20260903091336 | 72 | 71 | 136.0 | 137.0 | 0.00 | 0.00 | 0.00 | 86 | 1014.8 |
| 20260903090815 | 72 | 70 | 136.0 | 137.0 | 0.00 | 0.00 | 0.00 | 86 | 1014.9 |
| 20260903090316 | 71 | 67 | 136.0 | 137.0 | 0.00 | 0.00 | 0.00 | 86 | 1014.9 |
| 20260903085818 | 71 | 67 | 136.0 | 137.0 | 0.00 | 0.00 | 0.00 | 86 | 1015.0 |
| 20260903085327 | 71 | 67 | 136.0 | 137.0 | 0.00 | 0.00 | 0.00 | 86 | 1015.0 |
| 20260903084850 | 71 | 63 | 136.0 | 137.0 | 0.00 | 0.00 | 0.00 | 86 | 1015.0 |
| 20260903084318 | 71 | 63 | 136.0 | 137.0 | 0.00 | 0.00 | 0.00 | 85 | 1014.9 |
| 20260903083819 | 71 | 65 | 136.0 | 136.0 | 0.00 | 0.00 | 0.00 | 86 | 1015.0 |
| 20260903083321 | 72 | 65 | 136.0 | 136.0 | 0.00 | 0.00 | 0.00 | 86 | 1014.9 |
| 20260903082830 | 72 | 63 | 135.0 | 137.0 | 0.00 | 0.00 | 0.00 | 86 | 1015.0 |
| 20260903082351 | 71 | 63 | 135.0 | 137.0 | 0.00 | 0.00 | 0.00 | 86 | 1014.9 |
| 20260903081818 | 71 | 62 | 135.0 | 137.0 | 0.00 | 0.00 | 0.00 | 86 | 1014.9 |
| 20260903081321 | 71 | 63 | 135.0 | 137.0 | 0.00 | 0.00 | 0.00 | 85 | 1014.9 |
| 20260903080829 | 71 | 49 | 135.0 | 136.0 | 0.00 | 0.00 | 0.00 | 85 | 1015.0 |
| 20260903080331 | 72 | 50 | 135.0 | 136.0 | 0.00 | 0.00 | 0.00 | 85 | 1015.0 |
| 20260903075814 | 72 | 48 | 135.0 | 136.0 | 0.00 | 0.00 | 0.00 | 85 | 1015.0 |
| 20260903075315 | 72 | 49 | 135.0 | 136.0 | 0.00 | 0.00 | 0.00 | 85 | 1015.0 |
| 20260903074824 | 72 | 50 | 135.0 | 136.0 | 0.00 | 0.00 | 0.00 | 85 | 1015.0 |
| 20260903074354 | 72 | 49 | 135.0 | 136.0 | 0.00 | 0.00 | 0.00 | 85 | 1015.1 |
| 20260903073813 | 72 | 49 | 135.0 | 136.0 | 0.00 | 0.00 | 0.00 | 85 | 1015.0 |
| 20260903073314 | 72 | 48 | 135.0 | 136.0 | 0.00 | 0.00 | 0.00 | 85 | 1015.0 |
| 20260903072816 | 72 | 48 | 135.0 | 136.0 | 0.00 | 0.00 | 0.00 | 85 | 1015.0 |
| 20260903072325 | 72 | 49 | 135.0 | 136.0 | 0.00 | 0.00 | 0.00 | 85 | 1015.0 |
| 20260903071827 | 72 | 50 | 135.0 | 136.0 | 0.00 | 0.00 | 0.00 | 85 | 1015.0 |
| 20260903071337 | 72 | 50 | 135.0 | 136.0 | 0.00 | 0.00 | 0.00 | 85 | 1015.1 |
| 20260903070816 | 72 | 50 | 135.0 | 136.0 | 0.00 | 0.00 | 0.00 | 85 | 1015.1 |
| 20260903070342 | 72 | 50 | 135.0 | 136.0 | 0.00 | 0.00 | 0.00 | 85 | 1015.1 |
| 20260903065844 | 72 | 50 | 135.0 | 136.0 | 0.00 | 0.00 | 0.00 | 85 | 1015.1 |
| 20260903065331 | 72 | 50 | 135.0 | 136.0 | 0.00 | 0.00 | 0.00 | 85 | 1015.1 |
| 20260903064813 | 72 | 48 | 135.0 | 136.0 | 0.00 | 0.00 | 0.00 | 85 | 1015.1 |
| 20260903064316 | 72 | 50 | 135.0 | 136.0 | 0.00 | 0.00 | 0.00 | 85 | 1015.1 |
| 20260903063824 | 72 | 49 | 135.0 | 136.0 | 0.00 | 0.00 | 0.00 | 85 | 1015.0 |
| 20260903063326 | 72 | 48 | 135.0 | 136.0 | 0.00 | 0.00 | 0.00 | 85 | 1015.0 |
| 20260903062828 | 72 | 48 | 135.0 | 136.0 | 0.00 | 0.00 | 0.00 | 85 | 1015.1 |
| 20260903062336 | 72 | 48 | 135.0 | 136.0 | 0.00 | 0.00 | 0.00 | 85 | 1014.9 |
| 20260903061818 | 72 | 49 | 135.0 | 136.0 | 0.00 | 0.00 | 0.00 | 85 | 1015.0 |
| 20260903061320 | 72 | 50 | 135.0 | 136.0 | 0.00 | 0.00 | 0.00 | 85 | 1015.0 |
| 20260903060829 | 72 | 48 | 135.0 | 136.0 | 0.00 | 0.00 | 0.00 | 85 | 1014.9 |
| 20260903060315 | 72 | 50 | 135.0 | 136.0 | 0.00 | 0.00 | 0.00 | 85 | 1014.9 |
| 20260903055816 | 72 | 50 | 135.0 | 136.0 | 0.00 | 0.00 | 0.00 | 85 | 1014.9 |
| 20260903055325 | 72 | 50 | 135.0 | 136.0 | 0.00 | 0.00 | 0.00 | 85 | 1014.9 |
| 20260903054827 | 72 | 50 | 135.0 | 136.0 | 0.00 | 0.00 | 0.00 | 85 | 1014.8 |
| 20260903054353 | 73 | 49 | 135.0 | 136.0 | 0.00 | 0.00 | 0.00 | 85 | 1014.8 |
| 20260903053817 | 73 | 49 | 135.0 | 136.0 | 0.00 | 0.00 | 0.00 | 85 | 1014.7 |
| 20260903053318 | 73 | 50 | 104.0 | 136.0 | 0.00 | 0.00 | 0.00 | 85 | 1014.7 |
| 20260903052820 | 73 | 48 | 0.0 | 2.0 | 0.00 | 0.00 | 0.00 | 85 | 1014.8 |
| 20260903052329 | 73 | 50 | 0.0 | 2.0 | 0.00 | 0.00 | 0.00 | 84 | 1014.8 |
| 20260903051831 | 73 | 49 | 0.0 | 1.0 | 0.00 | 0.00 | 0.00 | 85 | 1014.8 |
| 20260903051314 | 73 | 49 | 0.0 | 0.0 | 0.00 | 0.00 | 0.00 | 85 | 1014.8 |
| 20260903050822 | 73 | 48 | 0.0 | 0.0 | 0.00 | 0.00 | 0.00 | 85 | 1014.7 |
| 20260903050323 | 73 | 49 | 0.0 | 0.0 | 0.00 | 0.00 | 0.00 | 85 | 1014.7 |
| 20260903045832 | 73 | 49 | 0.0 | 0.0 | 0.00 | 0.00 | 0.00 | 85 | 1014.8 |
| 20260903045334 | 73 | 49 | 0.0 | 0.0 | 0.00 | 0.00 | 0.00 | 85 | 1014.7 |
| 20260903044838 | 73 | 50 | 0.0 | 2.0 | 0.00 | 0.00 | 0.00 | 85 | 1014.7 |
| 20260903044320 | 73 | 49 | 0.0 | 2.0 | 0.00 | 0.00 | 0.00 | 85 | 1014.6 |
| 20260903043828 | 73 | 48 | 1.0 | 2.0 | 0.00 | 0.00 | 0.00 | 85 | 1014.6 |
| 20260903043313 | 73 | 50 | 0.0 | 1.0 | 0.00 | 0.00 | 0.00 | 85 | 1014.6 |
| 20260903042815 | 73 | 49 | 0.0 | 1.0 | 0.00 | 0.00 | 0.00 | 85 | 1014.7 |
| 20260903042341 | 73 | 49 | 0.0 | 1.0 | 0.00 | 0.00 | 0.00 | 84 | 1014.7 |
| 20260903041823 | 73 | 49 | 0.0 | 0.0 | 0.00 | 0.00 | 0.00 | 85 | 1014.6 |
| 20260903041352 | 73 | 49 | 0.0 | 0.0 | 0.00 | 0.00 | 0.00 | 85 | 1014.7 |
| 20260903040839 | 73 | 48 | 0.0 | 0.0 | 0.00 | 0.00 | 0.00 | 85 | 1014.7 |
| 20260903040317 | 73 | 48 | 0.0 | 1.0 | 0.00 | 0.00 | 0.00 | 85 | 1014.6 |
| 20260903035847 | 73 | 49 | 0.0 | 1.0 | 0.00 | 0.00 | 0.00 | 85 | 1014.6 |
| 20260903035328 | 73 | 49 | 0.0 | 1.0 | 0.00 | 0.00 | 0.00 | 85 | 1014.5 |
| 20260903034830 | 73 | 48 | 0.0 | 1.0 | 0.00 | 0.00 | 0.00 | 85 | 1014.6 |
| 20260903034339 | 73 | 49 | 0.0 | 2.0 | 0.00 | 0.00 | 0.00 | 85 | 1014.4 |
| 20260903033820 | 73 | 49 | 1.0 | 2.0 | 0.00 | 0.00 | 0.00 | 85 | 1014.4 |
| 20260903033322 | 73 | 48 | 1.0 | 2.0 | 0.00 | 0.00 | 0.00 | 85 | 1014.3 |
| 20260903032830 | 73 | 48 | 1.0 | 2.0 | 0.00 | 0.00 | 0.00 | 85 | 1014.4 |
| 20260903032312 | 73 | 49 | 1.0 | 1.0 | 0.00 | 0.00 | 0.00 | 85 | 1014.4 |
| 20260903031813 | 73 | 50 | 0.0 | 2.0 | 0.00 | 0.00 | 0.00 | 85 | 1014.4 |
| 20260903031316 | 73 | 48 | 1.0 | 2.0 | 0.00 | 0.00 | 0.00 | 85 | 1014.3 |
| 20260903030822 | 73 | 48 | 1.0 | 2.0 | 0.00 | 0.00 | 0.00 | 85 | 1014.3 |
| 20260903030324 | 73 | 49 | 1.0 | 2.0 | 0.00 | 0.00 | 0.00 | 85 | 1014.4 |
| 20260903025833 | 73 | 49 | 1.0 | 2.0 | 0.00 | 0.00 | 0.00 | 85 | 1014.4 |
| 20260903025318 | 74 | 49 | 1.0 | 2.0 | 0.00 | 0.00 | 0.00 | 85 | 1014.6 |
| 20260903024820 | 74 | 49 | 1.0 | 2.0 | 0.00 | 0.00 | 0.00 | 85 | 1014.6 |
| 20260903024329 | 73 | 49 | 1.0 | 2.0 | 0.00 | 0.00 | 0.00 | 85 | 1014.6 |
| 20260903023827 | 74 | 49 | 1.0 | 2.0 | 0.00 | 0.00 | 0.00 | 85 | 1014.6 |
| 20260903023328 | 74 | 50 | 1.0 | 2.0 | 0.00 | 0.00 | 0.00 | 85 | 1014.7 |
| 20260903022836 | 74 | 50 | 1.0 | 2.0 | 0.00 | 0.00 | 0.00 | 84 | 1014.6 |
| 20260903022317 | 74 | 49 | 1.0 | 2.0 | 0.00 | 0.00 | 0.00 | 84 | 1014.7 |
| 20260903021818 | 74 | 49 | 1.0 | 2.0 | 0.00 | 0.00 | 0.00 | 84 | 1014.7 |
| 20260903021320 | 74 | 49 | 1.0 | 2.0 | 0.00 | 0.00 | 0.00 | 84 | 1014.7 |
| 20260903020826 | 74 | 49 | 1.0 | 2.0 | 0.00 | 0.00 | 0.00 | 84 | 1014.6 |
| 20260903020327 | 74 | 49 | 1.0 | 2.0 | 0.00 | 0.00 | 0.00 | 84 | 1014.6 |
| 20260903015836 | 74 | 49 | 1.0 | 2.0 | 0.00 | 0.00 | 0.00 | 84 | 1014.4 |
| 20260903015317 | 74 | 49 | 1.0 | 2.0 | 0.00 | 0.00 | 0.00 | 84 | 1014.4 |
| 20260903014818 | 74 | 49 | 1.0 | 2.0 | 0.00 | 0.00 | 0.00 | 83 | 1014.4 |
| 20260903014320 | 74 | 48 | 1.0 | 1.0 | 0.00 | 0.00 | 0.00 | 84 | 1014.3 |
| 20260903013827 | 74 | 49 | 1.0 | 2.0 | 0.00 | 0.00 | 0.00 | 83 | 1014.4 |
| 20260903013329 | 74 | 49 | 1.0 | 2.0 | 0.00 | 0.00 | 0.00 | 83 | 1014.4 |
| 20260903012837 | 74 | 48 | 1.0 | 2.0 | 0.00 | 0.00 | 0.00 | 83 | 1014.3 |
| 20260903012318 | 75 | 49 | 1.0 | 2.0 | 0.00 | 0.00 | 0.00 | 83 | 1014.3 |
| 20260903011821 | 75 | 49 | 1.0 | 2.0 | 0.00 | 0.00 | 0.00 | 82 | 1014.2 |
| 20260903011323 | 75 | 49 | 1.0 | 2.0 | 0.00 | 0.00 | 0.00 | 82 | 1014.2 |
| 20260903010812 | 75 | 49 | 1.0 | 2.0 | 0.00 | 0.00 | 0.00 | 82 | 1014.1 |
| 20260903010331 | 75 | 49 | 1.0 | 2.0 | 0.00 | 0.00 | 0.00 | 82 | 1014.1 |
| 20260903005841 | 76 | 49 | 1.0 | 2.0 | 0.00 | 0.00 | 0.00 | 82 | 1014.0 |
| 20260903005322 | 76 | 49 | 0.0 | 2.0 | 0.00 | 0.00 | 0.00 | 81 | 1014.0 |
| 20260903004823 | 76 | 49 | 1.0 | 2.0 | 0.00 | 0.00 | 0.00 | 81 | 1014.0 |
| 20260903004331 | 76 | 5 | 0.0 | 1.0 | 0.00 | 0.00 | 0.00 | 81 | 1013.9 |
| 20260903003837 | 76 | 5 | 0.0 | 1.0 | 0.00 | 0.00 | 0.00 | 81 | 1013.9 |
| 20260903003318 | 77 | 5 | 0.0 | 0.0 | 0.00 | 0.00 | 0.00 | 80 | 1014.0 |
| 20260903002819 | 77 | 5 | 0.0 | 0.0 | 0.00 | 0.00 | 0.00 | 80 | 1013.9 |
| 20260903002328 | 77 | 5 | 0.0 | 0.0 | 0.00 | 0.00 | 0.00 | 80 | 1014.0 |
| 20260903001831 | 77 | 5 | 0.0 | 0.0 | 0.00 | 0.00 | 0.00 | 80 | 1014.0 |
| 20260903001340 | 77 | 5 | 0.0 | 0.0 | 0.00 | 0.00 | 0.00 | 79 | 1013.9 |
| 20260903000842 | 78 | 5 | 0.0 | 0.0 | 0.00 | 0.00 | 0.00 | 80 | 1014.0 |
| 20260903000322 | 78 | 5 | 0.0 | 0.0 | 0.00 | 0.00 | 0.00 | 80 | 1014.0 |
| 20260902235831 | 78 | 5 | 0.0 | 0.0 | 0.00 | 0.00 | 0.00 | 80 | 1014.1 |
| 20260902235313 | 78 | 5 | 0.0 | 0.0 | 0.00 | 0.00 | 0.00 | 80 | 1014.0 |
| 20260902234815 | 77 | 5 | 0.0 | 1.0 | 0.00 | 0.00 | 0.00 | 80 | 1014.0 |
| 20260902234323 | 77 | 5 | 0.0 | 1.0 | 0.00 | 0.00 | 0.00 | 81 | 1014.1 |
| 20260902233824 | 77 | 5 | 0.0 | 1.0 | 0.00 | 0.00 | 0.00 | 80 | 1014.2 |
| 20260902233353 | 77 | 5 | 0.0 | 1.0 | 0.00 | 0.00 | 0.00 | 80 | 1014.1 |
| 20260902232813 | 77 | 5 | 0.0 | 1.0 | 0.00 | 0.00 | 0.00 | 80 | 1014.0 |
| 20260902232321 | 77 | 5 | 0.0 | 0.0 | 0.00 | 0.00 | 0.00 | 80 | 1014.1 |
| 20260902231824 | 77 | 5 | 0.0 | 1.0 | 0.00 | 0.00 | 0.00 | 80 | 1014.0 |
| 20260902231326 | 77 | 5 | 0.0 | 1.0 | 0.00 | 0.00 | 0.00 | 80 | 1014.0 |
| 20260902230834 | 77 | 5 | 0.0 | 1.0 | 0.00 | 0.00 | 0.00 | 79 | 1014.1 |
| 20260902230314 | 77 | 5 | 0.0 | 1.0 | 0.00 | 0.00 | 0.00 | 79 | 1014.1 |
| 20260902225844 | 77 | 5 | 0.0 | 1.0 | 0.00 | 0.00 | 0.00 | 79 | 1014.2 |
| 20260902225325 | 77 | 5 | 0.0 | 1.0 | 0.00 | 0.00 | 0.00 | 79 | 1014.1 |
| 20260902224856 | 77 | 360 | 0.0 | 3.0 | 0.00 | 0.00 | 0.00 | 79 | 1014.3 |
| 20260902224317 | 77 | 57 | 0.0 | 3.0 | 0.00 | 0.00 | 0.00 | 79 | 1014.3 |
| 20260902223818 | 77 | 355 | 0.0 | 1.0 | 0.00 | 0.00 | 0.00 | 79 | 1014.2 |
| 20260902223325 | 77 | 245 | 0.0 | 1.0 | 0.00 | 0.00 | 0.00 | 79 | 1014.3 |
| 20260902222826 | 77 | 244 | 0.0 | 1.0 | 0.00 | 0.00 | 0.00 | 80 | 1014.3 |
| 20260902222328 | 77 | 242 | 0.0 | 1.0 | 0.00 | 0.00 | 0.00 | 80 | 1014.3 |
| 20260902221837 | 77 | 236 | 0.0 | 1.0 | 0.00 | 0.00 | 0.00 | 80 | 1014.4 |
| 20260902221319 | 77 | 237 | 1.0 | 2.0 | 0.00 | 0.00 | 0.00 | 80 | 1014.4 |
| 20260902220819 | 77 | 218 | 1.0 | 2.0 | 0.00 | 0.00 | 0.00 | 80 | 1014.4 |
| 20260902220328 | 77 | 226 | 1.0 | 2.0 | 0.00 | 0.00 | 0.00 | 80 | 1014.4 |
| 20260902215830 | 76 | 239 | 0.0 | 3.0 | 0.00 | 0.00 | 0.00 | 80 | 1014.4 |
| 20260902215312 | 76 | 243 | 1.0 | 4.0 | 0.00 | 0.00 | 0.00 | 80 | 1014.6 |
| 20260902214812 | 76 | 230 | 2.0 | 4.0 | 0.00 | 0.00 | 0.00 | 80 | 1014.6 |
| 20260902214321 | 76 | 216 | 2.0 | 4.0 | 0.00 | 0.00 | 0.00 | 80 | 1014.5 |
| 20260902213820 | 76 | 242 | 1.0 | 4.0 | 0.00 | 0.00 | 0.00 | 80 | 1014.4 |
| 20260902213329 | 77 | 208 | 1.0 | 4.0 | 0.00 | 0.00 | 0.00 | 80 | 1014.6 |
| 20260902212830 | 77 | 253 | 1.0 | 5.0 | 0.00 | 0.00 | 0.00 | 79 | 1014.6 |
| 20260902212313 | 77 | 229 | 0.0 | 5.0 | 0.00 | 0.00 | 0.00 | 80 | 1014.6 |
| 20260902211814 | 77 | 207 | 2.0 | 4.0 | 0.00 | 0.00 | 0.00 | 80 | 1014.6 |
| 20260902211324 | 77 | 209 | 1.0 | 3.0 | 0.00 | 0.00 | 0.00 | 80 | 1014.6 |
| 20260902210825 | 77 | 217 | 1.0 | 4.0 | 0.00 | 0.00 | 0.00 | 80 | 1014.5 |
| 20260902210333 | 77 | 213 | 2.0 | 4.0 | 0.00 | 0.00 | 0.00 | 80 | 1014.5 |
| 20260902205814 | 77 | 228 | 1.0 | 5.0 | 0.00 | 0.00 | 0.00 | 80 | 1014.6 |
| 20260902205337 | 77 | 232 | 2.0 | 5.0 | 0.00 | 0.00 | 0.00 | 80 | 1014.7 |
| 20260902204823 | 77 | 245 | 2.0 | 5.0 | 0.00 | 0.00 | 0.00 | 80 | 1014.6 |
| 20260902204326 | 77 | 202 | 2.0 | 5.0 | 0.00 | 0.00 | 0.00 | 80 | 1014.5 |
| 20260902203854 | 77 | 220 | 2.0 | 5.0 | 0.00 | 0.00 | 0.00 | 81 | 1014.6 |
| 20260902203316 | 77 | 211 | 3.0 | 5.0 | 0.00 | 0.00 | 0.00 | 81 | 1014.3 |
| 20260902202842 | 76 | 226 | 2.0 | 4.0 | 0.00 | 0.00 | 0.00 | 82 | 1014.3 |
| 20260902202322 | 76 | 205 | 0.0 | 3.0 | 0.00 | 0.00 | 0.00 | 82 | 1014.1 |
| 20260902201825 | 76 | 293 | 1.0 | 3.0 | 0.00 | 0.00 | 0.00 | 82 | 1014.0 |
| 20260902201334 | 76 | 80 | 1.0 | 4.0 | 0.00 | 0.00 | 0.00 | 81 | 1014.2 |
| 20260902200815 | 76 | 190 | 1.0 | 4.0 | 0.00 | 0.00 | 0.00 | 81 | 1014.9 |